sat.trackr.live / text

‹ back to catalog

STARLINK-36177

NORAD 66932 · 2025-286H

PAYLOAD ACTIVE UNKNOWN

§ Identity

Operator
Country
US
Launch date
2025-12-07
Launch site
AFWTR
Launch vehicle
Mass (kg)
RCS (m²)

Purposes: comms

External: N2YO · Heavens-Above · Gunter

§ Orbital elements

Epoch: 2026-09-20T11:18:25.376256Z

Period
93.85 min
Inclination
53.1593°
Eccentricity
0.0001131
Mean motion
15.34443427 rev/d
Perigee alt
461.8 km
Apogee alt
463.3 km
Semi-major
6,840.7 km
B*
7.1575e-4
RAAN
169.8174°
Arg perigee
63.6629°
Mean anomaly
296.4490°
Rev number
4,529

§ Raw data

STARLINK-361771 66932U 25286H   26263.47112704  .00023917  00000+0  71575-3 0  99932 66932  53.1593 169.8174 0001131  63.6629 296.4490 15.34443427 45299

JSON: /api/v1/satellites/66932 · /tle

For live sub-satellite position, see the globe view (requires WebGL).

§ Visibility from observer

Set your observer location to see the next 7 days of passes ≥ 10°. The values pass through the URL so the page stays shareable.

No JS? Fill the form by hand. The geolocation button needs JavaScript.